Weather History for Bellefontaine, OH

Change the Weather History Date:

Thursday, November 14, 2013

  Actual Average (KDAY) Record (KDAY)
Temperature  
Mean Temperature 39 °F 44 °F  
Max Temperature 48 °F 52 °F 76 °F (1909)
Min Temperature 30 °F 35 °F 11 °F (1986)
Degree Days  
Heating Degree Days 26 21  
Month to date heating degree days 261  
Since 1 July heating degree days 708  
Cooling Degree Days 0 0  
Month to date cooling degree days 0  
Year to date cooling degree days 891  
Moisture  
Dew Point 21 °F    
Average Humidity 51    
Maximum Humidity 69    
Minimum Humidity 32    
Precipitation  
Precipitation 0.00 in 0.12 in 1.44 in (1993)
Month to date precipitation 1.49  
Year to date precipitation 36.03  
Snow  
Snow 0.00 in 0.00 in 2.10 in (1970)
Month to date snowfall 0.2  
Since 1 July snowfall 0.6  
Since 1 September snowfall 0.6  
Snow Depth -    
Sea Level Pressure  
Sea Level Pressure 30.18 in    
Wind  
Wind Speed 14 mph (SSW)    
Max Wind Speed 18 mph    
Max Gust Speed 30 mph    
Visibility 10 miles    
Events      
T = Trace of Precipitation, MM = Missing Value Source: NWS Daily Summary

Daily Weather History Graph

Daily Weather History Graph

Search for Another Location

Airport:

Trip Planner

Search our weather history database for the weather conditions in past years. The results will help you decide how hot, cold, wet, or windy it might be!

Date:

Astronomy

Nov. 14, 2013 Rise Set
Actual Time 7:20 AM EST 5:18 PM EST
Civil Twilight 6:51 AM EST 5:47 PM EST
Nautical Twilight 6:18 AM EST 6:20 PM EST
Astronomical Twilight 5:46 AM EST 6:52 PM EST
Moon 3:39 PM EST (11/14) 4:14 AM EST (11/14)
Length of Visible Light 10h 56m
Length of Day
9h 58m
Waxing Gibbous, 91% of the Moon is Illuminated
Nov 14
Waxing Gibbous
Nov 17
Full
Nov 25
Last Quarter
Dec 2
New
Dec 9
First Quarter

Hourly Weather History & Observations

Time (EST) Temp. Windchill Dew Point Humidity Pressure Visibility Wind Dir Wind Speed Gust Speed Precip Events Conditions
12:05 AM 32.0 °F 22.1 °F 21.2 °F 64% 30.29 in 10.0 mi SSW 13.8 mph 21.9 mph 0.00 in   Clear
12:25 AM 32.0 °F 21.2 °F 21.2 °F 64% 30.29 in 10.0 mi SSW 16.1 mph 21.9 mph 0.00 in   Clear
12:45 AM 32.0 °F 21.2 °F 21.2 °F 64% 30.28 in 10.0 mi SSW 16.1 mph 24.2 mph 0.00 in   Clear
1:05 AM 32.0 °F 22.1 °F 21.2 °F 64% 30.28 in 10.0 mi SSW 13.8 mph 20.7 mph 0.00 in   Clear
1:25 AM 32.0 °F 21.6 °F 21.2 °F 64% 30.27 in 10.0 mi SSW 15.0 mph 23.0 mph 0.00 in   Clear
1:45 AM 32.0 °F 21.6 °F 21.2 °F 64% 30.27 in 10.0 mi SSW 15.0 mph 21.9 mph 0.00 in   Clear
2:05 AM 32.0 °F 21.2 °F 21.2 °F 64% 30.26 in 10.0 mi SSW 16.1 mph 20.7 mph 0.00 in   Clear
2:25 AM 32.0 °F 20.8 °F 21.2 °F 64% 30.26 in 10.0 mi SSW 17.3 mph 20.7 mph 0.00 in   Clear
2:45 AM 32.0 °F 21.6 °F 21.2 °F 64% 30.26 in 10.0 mi SSW 15.0 mph 23.0 mph 0.00 in   Clear
3:05 AM 32.0 °F 22.5 °F 21.2 °F 64% 30.26 in 10.0 mi SSW 12.7 mph 19.6 mph 0.00 in   Clear
3:25 AM 32.0 °F 22.5 °F 21.2 °F 64% 30.26 in 10.0 mi SSW 12.7 mph 17.3 mph 0.00 in   Clear
3:45 AM 32.0 °F 22.5 °F 21.2 °F 64% 30.26 in 10.0 mi SSW 12.7 mph 19.6 mph 0.00 in   Clear
4:05 AM 32.0 °F 21.2 °F 21.2 °F 64% 30.25 in 10.0 mi SSW 16.1 mph - 0.00 in   Clear
4:25 AM 32.0 °F 22.1 °F 21.2 °F 64% 30.25 in 10.0 mi SSW 13.8 mph 29.9 mph 0.00 in   Clear
4:45 AM 32.0 °F 22.1 °F 21.2 °F 64% 30.25 in 10.0 mi SSW 13.8 mph 20.7 mph 0.00 in   Clear
5:05 AM 30.2 °F 20.2 °F 21.2 °F 69% 30.25 in 10.0 mi SSW 12.7 mph 18.4 mph 0.00 in   Clear
5:25 AM 30.2 °F 20.2 °F 21.2 °F 69% 30.25 in 10.0 mi SSW 12.7 mph 18.4 mph 0.00 in   Clear
5:45 AM 32.0 °F 21.6 °F 21.2 °F 64% 30.24 in 10.0 mi SSW 15.0 mph 19.6 mph 0.00 in   Clear
6:05 AM 32.0 °F 22.1 °F 21.2 °F 64% 30.25 in 10.0 mi SSW 13.8 mph 19.6 mph 0.00 in   Clear
6:25 AM 30.2 °F 20.2 °F 21.2 °F 69% 30.25 in 10.0 mi SSW 12.7 mph - 0.00 in   Clear
6:45 AM 30.2 °F 21.3 °F 21.2 °F 69% 30.25 in 10.0 mi SSW 10.4 mph 18.4 mph 0.00 in   Clear
7:05 AM 30.2 °F 21.3 °F 21.2 °F 69% 30.25 in 10.0 mi SSW 10.4 mph 16.1 mph 0.00 in   Clear
7:25 AM 30.2 °F 21.9 °F 21.2 °F 69% 30.25 in 10.0 mi SSW 9.2 mph - 0.00 in   Clear
7:45 AM 30.2 °F 20.8 °F 21.2 °F 69% 30.25 in 10.0 mi South 11.5 mph 16.1 mph 0.00 in   Clear
8:05 AM 32.0 °F 24.2 °F 21.2 °F 64% 30.25 in 10.0 mi SSW 9.2 mph 16.1 mph 0.00 in   Clear
8:25 AM 32.0 °F 23.0 °F 21.2 °F 64% 30.25 in 10.0 mi SSW 11.5 mph 17.3 mph 0.00 in   Clear
8:45 AM 33.8 °F 24.3 °F 21.2 °F 60% 30.24 in 10.0 mi SSW 13.8 mph 20.7 mph 0.00 in   Clear
9:05 AM 33.8 °F 22.8 °F 21.2 °F 60% 30.24 in 10.0 mi SSW 18.4 mph 23.0 mph 0.00 in   Clear
9:25 AM 35.6 °F 25.5 °F 21.2 °F 56% 30.24 in 10.0 mi SSW 17.3 mph - 0.00 in   Clear
9:45 AM 35.6 °F 26.6 °F 21.2 °F 56% 30.24 in 10.0 mi SSW 13.8 mph - 0.00 in   Clear
10:05 AM 37.4 °F 28.5 °F 21.2 °F 52% 30.24 in 10.0 mi South 15.0 mph 19.6 mph 0.00 in   Clear
10:25 AM 37.4 °F 28.2 °F 21.2 °F 52% 30.23 in 10.0 mi SSW 16.1 mph 21.9 mph 0.00 in   Clear
10:45 AM 39.2 °F 30.8 °F 21.2 °F 49% 30.23 in 10.0 mi South 15.0 mph - 0.00 in   Clear
11:05 AM 39.2 °F 32.0 °F 21.2 °F 49% 30.22 in 10.0 mi SSW 11.5 mph - 0.00 in   Clear
11:25 AM 41.0 °F 32.8 °F 21.2 °F 45% 30.21 in 10.0 mi South 16.1 mph 20.7 mph 0.00 in   Clear
11:45 AM 42.8 °F 35.8 °F 21.2 °F 42% 30.20 in 10.0 mi SSW 13.8 mph 20.7 mph 0.00 in   Clear
12:05 PM 44.6 °F 37.2 °F 21.2 °F 39% 30.19 in 10.0 mi SSW 17.3 mph - 0.00 in   Clear
12:25 PM 44.6 °F 37.4 °F 21.2 °F 39% 30.18 in 10.0 mi SSW 16.1 mph 24.2 mph 0.00 in   Clear
12:45 PM 46.4 °F 39.5 °F 21.2 °F 37% 30.17 in 10.0 mi SSW 17.3 mph 21.9 mph 0.00 in   Clear
1:05 PM 46.4 °F 39.8 °F 21.2 °F 37% 30.16 in 10.0 mi SSW 16.1 mph 21.9 mph 0.00 in   Clear
1:25 PM 46.4 °F 39.8 °F 21.2 °F 37% 30.15 in 10.0 mi SSW 16.1 mph 23.0 mph 0.00 in   Clear
1:45 PM 48.2 °F - 21.2 °F 34% 30.14 in 10.0 mi South 16.1 mph 20.7 mph 0.00 in   Clear
2:05 PM 48.2 °F - 19.4 °F 32% 30.13 in 10.0 mi SSW 17.3 mph 24.2 mph 0.00 in   Clear
2:25 PM 48.2 °F - 21.2 °F 34% 30.13 in 10.0 mi SSW 16.1 mph 21.9 mph 0.00 in   Clear
2:45 PM 48.2 °F - 21.2 °F 34% 30.12 in 10.0 mi South 16.1 mph 21.9 mph 0.00 in   Clear
3:05 PM 48.2 °F - 21.2 °F 34% 30.12 in 10.0 mi SSW 15.0 mph 23.0 mph 0.00 in   Clear
3:25 PM 48.2 °F - 19.4 °F 32% 30.12 in 10.0 mi South 17.3 mph 23.0 mph 0.00 in   Clear
3:45 PM 48.2 °F - 19.4 °F 32% 30.12 in 10.0 mi SSW 18.4 mph 21.9 mph 0.00 in   Clear
4:05 PM 48.2 °F - 19.4 °F 32% 30.11 in 10.0 mi South 11.5 mph - 0.00 in   Clear
4:25 PM 48.2 °F - 19.4 °F 32% 30.11 in 10.0 mi South 12.7 mph 18.4 mph 0.00 in   Clear
4:45 PM 46.4 °F 41.1 °F 21.2 °F 37% 30.10 in 10.0 mi South 11.5 mph - 0.00 in   Clear
5:05 PM 44.6 °F 38.8 °F 19.4 °F 37% 30.10 in 10.0 mi South 11.5 mph - 0.00 in   Clear
5:25 PM 44.6 °F 39.2 °F 19.4 °F 37% 30.10 in 10.0 mi South 10.4 mph - 0.00 in   Clear
5:45 PM 42.8 °F 37.5 °F 19.4 °F 39% 30.09 in 10.0 mi South 9.2 mph - 0.00 in   Clear
6:05 PM 42.8 °F 38.0 °F 19.4 °F 39% 30.10 in 10.0 mi South 8.1 mph - 0.00 in   Clear
6:25 PM 41.0 °F 35.2 °F 19.4 °F 42% 30.10 in 10.0 mi South 9.2 mph - 0.00 in   Clear
6:45 PM 41.0 °F 34.7 °F 19.4 °F 42% 30.10 in 10.0 mi South 10.4 mph - 0.00 in   Clear
7:05 PM 41.0 °F 34.3 °F 19.4 °F 42% 30.09 in 10.0 mi South 11.5 mph - 0.00 in   Clear
7:25 PM 41.0 °F 35.2 °F 19.4 °F 42% 30.10 in 10.0 mi South 9.2 mph - 0.00 in   Clear
7:45 PM 39.2 °F 32.5 °F 19.4 °F 45% 30.10 in 10.0 mi SSE 10.4 mph - 0.00 in   Clear
8:05 PM 39.2 °F 32.5 °F 19.4 °F 45% 30.10 in 10.0 mi South 10.4 mph - 0.00 in   Clear
8:25 PM 39.2 °F 33.0 °F 19.4 °F 45% 30.10 in 10.0 mi South 9.2 mph - 0.00 in   Clear
8:45 PM 37.4 °F 30.3 °F 21.2 °F 52% 30.10 in 10.0 mi South 10.4 mph - 0.00 in   Clear
9:05 PM 37.4 °F 30.8 °F 21.2 °F 52% 30.10 in 10.0 mi South 9.2 mph - 0.00 in   Clear
9:25 PM 39.2 °F 32.0 °F 19.4 °F 45% 30.10 in 10.0 mi South 11.5 mph - 0.00 in   Clear
9:45 PM 39.2 °F 32.0 °F 19.4 °F 45% 30.09 in 10.0 mi South 11.5 mph - 0.00 in   Clear
10:05 PM 37.4 °F 30.3 °F 21.2 °F 52% 30.10 in 10.0 mi South 10.4 mph 16.1 mph 0.00 in   Clear
10:25 PM 37.4 °F 29.8 °F 21.2 °F 52% 30.10 in 10.0 mi South 11.5 mph - 0.00 in   Clear
10:45 PM 41.0 °F 33.5 °F 19.4 °F 42% 30.10 in 10.0 mi South 13.8 mph 19.6 mph 0.00 in   Clear
11:05 PM 42.8 °F 34.8 °F 19.4 °F 39% 30.09 in 10.0 mi South 17.3 mph 24.2 mph 0.00 in   Clear
11:25 PM 42.8 °F 34.8 °F 19.4 °F 39% 30.09 in 10.0 mi SSW 17.3 mph 29.9 mph 0.00 in   Clear
11:45 PM 42.8 °F 34.8 °F 19.4 °F 39% 30.08 in 10.0 mi SSW 17.3 mph 23.0 mph 0.00 in   Clear